Location: Newark
(44.6394°N, 22.2943°E)
Time: 23:49:15
(UTC+00:00)

MOZHAYETS 4 - Visible Passes

Search period start: 01 December 2023 00:00
Search period end: 11 December 2023 00:00
Orbit: 656 x 672 km, 98.3° (Epoch: 01 December)

Date Brightness Start Highest point End Pass type
(mag) Time Alt. Az. Time Alt. Az. Time Alt. Az.
01 Dec 10.4 16:00:14 10° NNW 16:02:53 15° WNW 16:05:33 10° W visible
03 Dec 9.5 15:23:59 10° N 15:28:01 31° WNW 15:32:02 10° SW visible
04 Dec 10.3 15:55:39 10° NNW 15:58:34 17° WNW 16:01:28 10° W visible
06 Dec 9.4 15:19:29 10° N 15:23:38 34° WNW 15:27:46 10° SW visible
07 Dec 10.2 15:51:02 10° NNW 15:54:12 18° WNW 15:57:20 10° WSW visible
09 Dec 9.2 15:14:57 10° N 15:19:12 37° WNW 15:23:25 10° SW visible
10 Dec 10.1 15:46:24 10° NNW 15:49:45 20° WNW 15:53:06 10° WSW visible
